#timestamp,LO_Frequency,Hit,StdDev 
1701810015.7,286047001.0,N
1701810035.6,286047000.8,N
1701810055.4,286046999.7,N
1701810075.2,286046999.8,N
1701810095.1,286047000.2,N
1701810096.0,286047000.2,N
1701810115.8,286047000.7,N
1701810135.6,286047000.6,N
1701810155.5,286047000.1,N
1701810175.3,286047000.2,N
1701810195.2,286047002.8,N
1701810215.9,286047002.2,N
1701810235.7,286047000.6,N
1701810255.6,286047000.4,N
1701810275.4,286046999.8,N
1701810295.2,286047000.1,N
1701810315.1,286047000.0,N
1701810316.0,286047000.0,N
1701810335.8,286047000.2,N
1701810355.7,286047002.6,N
1701810375.5,286047001.8,N
1701810395.3,286047001.4,N
1701810415.2,286047003.0,N
1701810435.0,286047002.0,N
1701810435.9,286047002.0,N
1701810455.8,286047002.4,N
1701810475.6,286046999.7,N
1701810495.4,286046999.8,N
1701810515.3,286047002.8,N
1701810535.1,286047000.6,N
1701810555.8,286047000.4,N
1701810575.7,286047001.0,N
1701810595.5,286047000.8,N
1701810615.4,286046998.1,N
1701810635.2,286046998.8,N
1701810655.0,286047000.9,N
1701810655.9,286047000.9,N
1701810675.8,286047001.0,N
1701810695.6,286046998.1,N
1701810715.4,286047000.7,N
1701810735.3,286047002.3,N
1701810755.1,286047000.2,N
1701810775.9,286047002.2,N
1701810795.7,286047002.3,N
1701810815.5,286047002.1,N
1701810835.4,286047002.0,N
1701810855.2,286047001.4,N
1701810875.0,286047002.6,N
1701810875.9,286047002.6,N
1701810895.8,286047002.6,N
1701810915.6,286047002.3,N
1701810935.5,286047011.9,Y
1701810955.3,286047002.7,P
1701810975.1,286047000.6,N
1701810995.9,286047002.6,N
1701811015.7,286046999.7,N
1701811035.6,286047002.6,N
1701811055.4,286047000.0,N
1701811075.2,286047000.8,N
1701811095.1,286047000.7,N
1701811096.0,286047000.7,N
1701811115.8,286046999.4,N
1701811135.7,286046999.3,N
1701811155.5,286046998.8,N
1701811175.3,286047000.9,N
1701811195.2,286047001.1,N
1701811215.9,286047000.8,N
1701811235.7,286047000.7,N
1701811255.6,286046998.3,N
1701811275.4,286046998.9,N
1701811295.2,286047000.0,N
1701811315.1,286046999.7,N
1701811316.0,286046999.7,N
1701811335.8,286047000.2,N
1701811355.7,286046999.7,N
1701811375.5,286047002.0,N
1701811395.3,286047001.9,N
1701811415.2,286047001.6,N
1701811435.0,286047003.9,Y
1701811435.9,286047003.9,P
1701811455.8,286047002.1,N
1701811475.6,286047002.8,N
1701811495.4,286047002.6,N
1701811515.3,286047000.5,N
1701811535.1,286046998.4,N
1701811555.8,286047001.2,N
1701811575.7,286047000.8,N
1701811595.5,286047000.0,N
1701811615.4,286046998.5,N
1701811635.2,286046998.5,N
1701811655.0,286047000.6,N
1701811655.9,286047000.6,N
1701811675.8,286047000.5,N
1701811695.6,286047002.4,N
1701811715.5,286047001.3,N
1701811735.3,286047001.9,N
1701811755.1,286047002.7,N
1701811775.9,286047002.1,N
1701811795.7,286047003.2,N
1701811815.5,286047004.4,N
1701811835.4,286047003.9,N
1701811855.2,286047002.2,N
1701811875.1,286047001.5,N
1701811876.0,286047001.5,N
1701811895.8,286047001.8,N
1701811915.6,286047002.0,N
1701811935.5,286047002.3,N
1701811955.3,286047001.5,N
1701811975.2,286047001.8,N
1701811995.9,286047001.9,N
1701812015.7,286047002.4,N
1701812035.6,286047001.0,N
1701812055.4,286047002.4,N
1701812075.2,286047002.1,N
1701812095.1,286047002.8,N
1701812096.0,286047002.8,N
1701812115.8,286047004.3,Y
1701812135.7,286047002.4,P
1701812155.5,286047000.4,N
1701812175.3,286046999.8,N
1701812195.2,286047000.8,N
1701812215.0,286047000.5,N
1701812215.9,286047000.5,N
1701812235.8,286047001.2,N
1701812255.6,286046998.3,N
1701812275.4,286046999.6,N
1701812295.3,286046999.5,N
1701812315.1,286046999.0,N
1701812335.8,286046999.0,N
1701812355.7,286047000.8,N
1701812375.5,286046999.2,N
1701812395.4,286046998.7,N
1701812415.2,286046999.1,N
1701812435.0,286046996.9,N
1701812435.9,286046996.9,N
1701812455.8,286046996.5,N
1701812475.6,286046997.2,N
1701812495.4,286046998.9,N
1701812515.3,286046999.2,N
1701812535.1,286046996.7,N
1701812555.9,286046997.4,N
1701812575.7,286046999.2,N
1701812595.5,286046997.2,N
1701812615.4,286046996.9,N
1701812635.2,286046996.7,N
1701812655.0,286046995.9,N
1701812656.0,286046995.9,N
1701812675.8,286046996.0,N
1701812695.6,286046995.1,Y
1701812715.5,286046998.3,P
1701812735.3,286046999.3,P
1701812755.1,286046998.9,N
1701812775.9,286046998.8,Y
1701812795.7,286046996.7,P
1701812815.6,286046997.3,N
1701812835.4,286046999.1,N
1701812855.2,286046998.7,N
1701812875.1,286047001.2,N
1701812876.0,286047001.2,N
1701812895.8,286047000.7,N
1701812915.6,286046998.1,N
1701812935.5,286046998.5,N
1701812955.3,286047001.0,N
1701812975.2,286046999.0,N
1701812995.9,286046998.5,N
1701813015.7,286046998.3,N
1701813035.6,286046998.2,N
1701813055.4,286047000.9,N
1701813075.3,286046998.6,N
1701813095.1,286046998.2,N
1701813096.0,286046998.2,N
1701813115.8,286047001.2,N
1701813135.7,286046999.3,N
1701813155.5,286046998.6,N
1701813175.4,286047001.1,N
1701813195.2,286047000.6,N
1701813215.0,286047000.9,N
1701813215.9,286047000.9,N
1701813235.8,286046999.9,N
1701813255.6,286047000.3,N
1701813275.5,286047001.2,N
1701813295.3,286047002.7,N
1701813315.1,286047002.8,N
1701813335.9,286047000.2,N
1701813355.7,286047002.3,N
1701813375.5,286047000.9,N
1701813395.4,286046998.2,N
1701813415.2,286047001.1,N
1701813435.1,286047001.2,N
1701813436.0,286047001.2,N
1701813455.8,286046996.5,N
1701813475.6,286046999.6,N
1701813495.5,286046999.4,N
1701813515.3,286046998.2,N
1701813535.2,286047000.9,N
1701813555.9,286047002.6,N
1701813575.7,286047001.5,N
1701813595.6,286047002.4,N
